OCN3PR EDDM-GCTS

Flight info

Callsign OCN3PR
Flight time N/A
Altitude 35000
Route ALG2E ALG Y109 UMTEX Y100 TRA DCT LUTIX DCT BENOT DCT NEMOS DCT NINTU DCT MEBAK DCT REPSI DCT LERGA DCT MINSO DCT NARAK DCT AGN DCT PIPOR L866 PPN DCT MIRPO DCT DGO DCT NEA L14 ADINO DCT RAKOD DCT ELVAR DCT GAIOS/N0443F370 DCT TROIA DCT BEXAL UN866 KONBA
Aircraft A320/M-SDE3FGHIRWY/LB1

Departure

Time 2026-04-30 10:34
Airport Munich Airport (EDDM)

Arrival

Time N/A
Airport Tenerife Sur Airport (GCTS)
Time Latitude Longitude Altitude Speed Heading
2026-04-30 09:57 48.35082 11.80928 1486 ft 0 kts 173°
2026-04-30 10:17 48.35104 11.80924 1477 ft 4 kts 173°
2026-04-30 10:17 48.35158 11.80915 1472 ft 4 kts 173°
2026-04-30 10:17 48.35179 11.80911 1479 ft 4 kts 176°
2026-04-30 10:18 48.35205 11.80914 1478 ft 4 kts 202°
2026-04-30 10:18 48.35224 11.80936 1471 ft 4 kts 250°
2026-04-30 10:18 48.35229 11.80972 1478 ft 3 kts 263°
2026-04-30 10:19 48.35229 11.80976 1477 ft 0 kts 263°
2026-04-30 10:22 48.35228 11.80968 1478 ft 3 kts 263°
2026-04-30 10:22 48.35223 11.80893 1477 ft 8 kts 263°
2026-04-30 10:23 48.35214 11.80769 1473 ft 18 kts 264°
2026-04-30 10:23 48.35197 11.80564 1481 ft 19 kts 262°
2026-04-30 10:23 48.35182 11.80378 1480 ft 17 kts 264°
2026-04-30 10:23 48.35171 11.80213 1471 ft 15 kts 262°
2026-04-30 10:24 48.35143 11.80079 1485 ft 13 kts 251°
2026-04-30 10:24 48.35120 11.79953 1477 ft 15 kts 264°
2026-04-30 10:24 48.35109 11.79797 1485 ft 14 kts 264°
2026-04-30 10:24 48.35099 11.79660 1485 ft 12 kts 263°
2026-04-30 10:25 48.35084 11.79546 1475 ft 11 kts 239°
2026-04-30 10:25 48.35013 11.79529 1474 ft 12 kts 173°
2026-04-30 10:25 48.34969 11.79538 1472 ft 16 kts 172°
2026-04-30 10:26 48.34955 11.79540 1481 ft 16 kts 173°
2026-04-30 10:26 48.34916 11.79547 1473 ft 15 kts 173°
2026-04-30 10:26 48.34864 11.79556 1476 ft 14 kts 173°
2026-04-30 10:27 48.34788 11.79483 1481 ft 20 kts 251°
2026-04-30 10:27 48.34765 11.79218 1478 ft 27 kts 263°
2026-04-30 10:27 48.34744 11.78947 1485 ft 25 kts 264°
2026-04-30 10:27 48.34733 11.78751 1485 ft 12 kts 260°
2026-04-30 10:28 48.34717 11.78592 1483 ft 22 kts 262°
2026-04-30 10:28 48.34696 11.78318 1474 ft 28 kts 264°
2026-04-30 10:28 48.34674 11.78034 1485 ft 26 kts 264°
2026-04-30 10:28 48.34654 11.77777 1485 ft 24 kts 263°
2026-04-30 10:29 48.34634 11.77523 1481 ft 25 kts 263°
2026-04-30 10:29 48.34615 11.77277 1485 ft 22 kts 263°
2026-04-30 10:29 48.34598 11.77041 1485 ft 24 kts 264°
2026-04-30 10:29 48.34576 11.76770 1482 ft 28 kts 263°
2026-04-30 10:30 48.34553 11.76460 1479 ft 32 kts 264°
2026-04-30 10:30 48.34526 11.76138 1485 ft 30 kts 262°
2026-04-30 10:30 48.34503 11.75839 1483 ft 28 kts 264°
2026-04-30 10:30 48.34485 11.75566 1477 ft 25 kts 264°
2026-04-30 10:31 48.34468 11.75327 1485 ft 18 kts 262°
2026-04-30 10:31 48.34435 11.75211 1481 ft 11 kts 199°
2026-04-30 10:31 48.34361 11.75228 1476 ft 10 kts 173°
2026-04-30 10:31 48.34287 11.75239 1485 ft 12 kts 174°
2026-04-30 10:32 48.34189 11.75256 1480 ft 15 kts 173°
2026-04-30 10:32 48.34094 11.75273 1482 ft 9 kts 174°
2026-04-30 10:32 48.34081 11.75311 1485 ft 0 kts 83°
2026-04-30 10:32 48.34082 11.75317 1485 ft 1 kts 83°
2026-04-30 10:33 48.34087 11.75379 1485 ft 18 kts 82°
2026-04-30 10:33 48.34130 11.75921 1483 ft 84 kts 83°
2026-04-30 10:33 48.34220 11.77072 1475 ft 136 kts 83°
2026-04-30 10:33 48.34342 11.78620 1808 ft 153 kts 82°
2026-04-30 10:34 48.34456 11.80234 2442 ft 160 kts 84°
2026-04-30 10:34 48.34579 11.81917 2951 ft 171 kts 84°
2026-04-30 10:34 48.34717 11.83819 3171 ft 193 kts 84°
2026-04-30 10:34 48.34875 11.85911 3518 ft 212 kts 84°
2026-04-30 10:35 48.35043 11.88135 4291 ft 214 kts 84°
2026-04-30 10:35 48.35217 11.90378 5036 ft 216 kts 84°
2026-04-30 10:35 48.35392 11.92648 5711 ft 220 kts 85°
2026-04-30 10:35 48.35280 11.94915 6403 ft 223 kts 108°
2026-04-30 10:36 48.34411 11.96918 6909 ft 238 kts 135°
2026-04-30 10:36 48.32911 11.98221 7300 ft 266 kts 160°
2026-04-30 10:36 48.31014 11.98249 7864 ft 287 kts 193°
2026-04-30 10:36 48.29267 11.96690 8465 ft 303 kts 225°
2026-04-30 10:37 48.28079 11.94082 9307 ft 304 kts 243°
2026-04-30 10:37 48.27221 11.91218 10117 ft 303 kts 248°
2026-04-30 10:37 48.26352 11.88336 10867 ft 305 kts 245°
2026-04-30 10:37 48.25403 11.85449 11455 ft 311 kts 244°
2026-04-30 10:38 48.24412 11.82533 12029 ft 317 kts 244°
2026-04-30 10:38 48.23404 11.79577 12753 ft 318 kts 245°
2026-04-30 10:38 48.22425 11.76566 13219 ft 329 kts 251°
2026-04-30 10:38 48.21840 11.73165 13353 ft 347 kts 261°
2026-04-30 10:39 48.21321 11.69532 13549 ft 364 kts 260°
2026-04-30 10:39 48.20789 11.65761 13954 ft 374 kts 261°
2026-04-30 10:39 48.20250 11.61940 14522 ft 377 kts 260°
2026-04-30 10:39 48.19702 11.58078 15039 ft 380 kts 259°
2026-04-30 10:40 48.19152 11.54230 15508 ft 385 kts 259°
2026-04-30 10:40 48.18587 11.50293 16019 ft 389 kts 260°
2026-04-30 10:40 48.18011 11.46321 16547 ft 392 kts 259°
2026-04-30 10:40 48.17426 11.42316 17082 ft 395 kts 259°
2026-04-30 10:41 48.16837 11.38277 17601 ft 398 kts 260°